Погода в Семиозерках

Россия / Республика Татарстан     55°57′02″N   49°05′49″E
темп.,
°C
ветер,
м/с
пор.,
м/с
влажн.,
%
обл.,
%
осадки,
мм/ч
давл.,
гПа
погр.,
м
16 июня, ср
ср1600:00+19вюв467987 0.9 101179
03:00+17в411915 1.3 1010189
06:00+20вюв4108072 0.0 1009275
09:00+25юв565893 0.0 1008563
12:00+28юв454899 0.0 10061174
15:00+28ю44505 0.0 10051606
18:00+25юз46700 0.5 1005263
21:00+19ссз71489100 2.6 1006395
17 июня, чт
чт1700:00+17с5119497 2.0 1009622
03:00+13ссз512951 2.0 1012410
06:00+15ссз511820 0.0 1014413
09:00+19ссз68550 0.0 10151305
12:00+21ссз78411 0.0 10162123
15:00+21ссз684680 0.0 10162237
18:00+17сз51159100 0.0 1018455
21:00+14с5116251 0.0 1021347
18 июня, пт
пт1800:00+11ссз411745 0.0 1022286
03:00+9ссз310700 0.0 1024192
06:00+12с511670 0.0 1025454
09:00+16с575396 0.0 10261107
12:00+19ссз46442 0.0 10261508
15:00+20ссз454192 0.0 10261525
18:00+19с235979 0.0 1025256
21:00+15юз1164100 0.0 102511
19 июня, сб
сб1900:00+14зюз2268100 0.0 102624
03:00+12зюз359028 0.0 102686
06:00+16з4878100 0.0 1026222
09:00+21з576531 0.0 1025630
12:00+25з685515 0.0 10241724
15:00+27з685220 0.0 10222033
18:00+24з6117228 0.0 1021508
21:00+20з410900 0.1 1022195
20 июня, вс
вс2000:00+18зсз49910 0.0 1022181
03:00+17зсз37923 0.0 1023120
06:00+20зсз47810 0.0 1024208
09:00+25зсз46600 0.0 1023659
12:00+28сз45470 0.0 10231786
15:00+29сз354416 0.0 10212131
18:00+26з466798 0.0 1022308
21:00+21з37885 0.1 1022137